Flag for French Polynesia Weather past 2 weeks in Gambier Islands, French Polynesia

Now
71 °F

Light rain. Low clouds.


Feels Like: 64 °F
Forecast: 72 / 74 °F
Wind: 3 mph from North

Location: Rikitea

Current Time: Jun 30, 2015 at 12:29:03 PM

Latest Report: Jun 30, 2015 at 11:00 AM


Visibility: 7 mi

Pressure: 29.99 "Hg

Humidity: 100%

Dew point: 71 °F

Location of Gambier IslandsLocation

Historic Weather in Gambier Islands — Graph

°F

Gambier Islands temperature yesterday

Maximum temperature yesterday: 76 °F (at 1:00 PM)
Minimum temperature yesterday: 69 °F (at 7:00 PM)
Average temperature yesterday: 72 °F

Past Weeks' High & Low Weather Summary

 TemperatureHumidityPressure
High79 °F (Jun 21, 1:00 PM)100% (Jun 15, 11:00 AM)30.16 "Hg (Jun 15, 11:00 AM)
Low67 °F (Jun 17, 4:00 AM)56% (Jun 17, 1:00 PM)29.91 "Hg (Jun 20, 4:00 PM)
Average73 °F86%30.04 "Hg
* Reported Jun 15 11:00 AM — Jun 30 11:00 AM, Gambier Islands, Weather by CustomWeather, © 2015

Note: Actual official high and low records may vary slightly from our data, if they occured in-between our weather recording intervals... More about our weather records

Advertising

Gambier Islands weather history for previous 24 hours

 ConditionsComfort  
Time TempWeatherWind HumidityBarometerVisibility
11:00 AM
Tue, Jun 30
71 °FLight rain. Low clouds.3 mph100%29.99 "Hg7 mi
10:00 AM71 °FLow clouds.3 mph100%30.00 "Hg12 mi
9:00 AM70 °FLight rain. Low clouds.2 mph100%29.99 "Hg7 mi
7:00 AM70 °FLight rain. Low clouds.5 mph100%29.96 "Hg3 mi
5:00 AM70 °FMild.5 mph100%29.94 "HgN/A
4:00 AM71 °FMild.1 mph100%29.93 "HgN/A
3:00 AM71 °FMild.3 mph100%29.94 "HgN/A
2:00 AM71 °FMild.6 mph100%29.96 "HgN/A
1:00 AM72 °FMild.5 mph100%29.97 "HgN/A
12:00 AM71 °FMild.5 mph100%29.98 "HgN/A
11:00 PM
Mon, Jun 29
71 °FMild.5 mph100%29.99 "HgN/A
10:00 PM70 °FMild.3 mph100%30.00 "HgN/A
9:00 PM71 °FMild.2 mph100%30.00 "HgN/A
8:00 PM70 °FMild.6 mph100%30.00 "HgN/A
7:00 PM69 °FMild.6 mph98%29.99 "HgN/A
6:00 PM73 °FMild.3 mph90%29.98 "HgN/A
5:00 PM74 °FOvercast.5 mph89%29.97 "Hg11 mi
4:00 PM75 °FPartly sunny.5 mph86%29.96 "Hg25 mi
3:00 PM75 °FPassing clouds.6 mph83%29.96 "Hg31 mi
2:00 PM76 °FScattered clouds.7 mph82%29.97 "Hg25 mi
1:00 PM76 °FPartly sunny.6 mph83%29.99 "Hg25 mi
Weather by CustomWeather, © 2015

See weather overviewHow to use our weather pages